This is the latest recevied weather packets stored in our database for station/object W1CAT. If no packets are shown the sender has not sent any weather packets the latest 10 day(s).
| Time | Temp. | Humidity | Pressure | Rain* | Wind** | Luminosity | Snow |
|---|---|---|---|---|---|---|---|
| 1777646737 | 4.44° C | 78% | - | 0 mm | - | - | - |
| 1777646432 | 4.44° C | 78% | - | 1.27 mm | - | - | - |
| 1777646129 | 4.44° C | 75% | - | 1.27 mm | - | - | - |
| 1777645826 | 4.44° C | 80% | - | 0 mm | - | - | - |
| 1777645524 | 3.33° C | 83% | - | 0 mm | - | - | - |
| 1777645219 | 2.78° C | 86% | - | 0 mm | - | - | - |
| 1777644915 | 1.67° C | 92% | - | 0 mm | - | - | - |
| 1777644614 | 0.56° C | 92% | - | 0 mm | - | - | - |
| 1777644309 | 0.56° C | 92% | - | 0 mm | - | - | - |
| 1777644005 | 0.56° C | 93% | - | 0 mm | - | - | - |
| 1777643702 | 1.11° C | 94% | - | 0 mm | - | - | - |
| 1777643400 | 1.11° C | 96% | - | 0 mm | - | - | - |
| 1777643096 | 0.56° C | 97% | - | 0 mm | - | - | - |
| 1777642793 | 0.56° C | 97% | - | 0 mm | - | - | - |
| 1777642489 | 0.56° C | 97% | - | 0 mm | - | - | - |
| 1777642186 | 0.56° C | 98% | - | 0 mm | - | - | - |
| 1777641883 | 0.56° C | 98% | - | 0 mm | - | - | - |
| 1777641577 | 0° C | 98% | - | 0 mm | - | - | - |
| 1777641272 | 0° C | 98% | - | 0 mm | - | - | - |
| 1777640969 | 0° C | 98% | - | 0 mm | - | - | - |
| 1777640666 | 0° C | 98% | - | 0 mm | - | - | - |
| 1777640362 | 0° C | 98% | - | 0 mm | - | - | - |
| 1777640059 | -0.56° C | 98% | - | 0 mm | - | - | - |
| 1777639756 | -0.56° C | 98% | - | 0 mm | - | - | - |
| 1777639454 | -0.56° C | 98% | - | 0 mm | - | - | - |
* Rain latest hour (hover to see other rain measurements)
** Current wind speed in m/s (hover to see current wind gust speed)